Tallulah, LA

8:14 PM CST on February 24, 2017 (GMT -0600)
Vicksburg Tallulah Regional

Weather History for KTVR - October, 2014

Change the Weather History Date:

Thursday, October 2, 2014

  Actual Average Record
Temperature  
Mean Temperature 80 °F 70 °F  
Max Temperature 91 °F 83 °F 95 °F (1998)
Min Temperature 68 °F 58 °F 36 °F (1984)
Degree Days  
Heating Degree Days 0 1  
Month to date heating degree days 0 2  
Since 1 July heating degree days 0 7  
Cooling Degree Days 15 6  
Month to date cooling degree days 32 12  
Year to date cooling degree days 2076 2109  
Growing Degree Days 32 (Base 50)    
Moisture  
Dew Point 73 °F    
Average Humidity 72    
Maximum Humidity 88    
Minimum Humidity 56    
Precipitation  
Precipitation 1.00 in 0.13 in 2.00 in (1977)
Month to date precipitation 1.00 0.25  
Year to date precipitation 46.24 39.71  
Sea Level Pressure  
Sea Level Pressure 29.92 in    
Wind  
Wind Speed 9 mph (South)    
Max Wind Speed 23 mph    
Max Gust Speed 31 mph    
Visibility 10 miles    
Events      
T = Trace of Precipitation, MM = Missing Value Source: NWS Daily Summary

Daily Weather History Graph

Daily Weather History Graph

Search for Another Location

Airport or City:

Trip Planner

Search our weather history database for the weather conditions in past years. The results will help you decide how hot, cold, wet, or windy it might be!

Date:

Astronomy

Oct. 02, 2014 Rise Set
Actual Time 6:58 AM CDT 6:47 PM CDT
Civil Twilight 6:34 AM CDT 7:12 PM CDT
Nautical Twilight 6:05 AM CDT 7:40 PM CDT
Astronomical Twilight 5:37 AM CDT 8:08 PM CDT
Moon 2:36 PM CDT (10/2) 12:34 AM CDT (10/2)
Length of Visible Light 12h 37m
Length of Day
11h 48m
First Quarter, 60% of the Moon is Illuminated
Oct 2
First Quarter
Oct 8
Full
Oct 15
Last Quarter
Oct 23
New
Oct 30
First Quarter

Hourly Weather History & Observations

Time (CDT) Temp. Heat Index Dew Point Humidity Pressure Visibility Wind Dir Wind Speed Gust Speed Precip Events Conditions
12:51 AM 77.0 °F - 71.6 °F 83% 29.91 in 10.0 mi SSE 11.5 mph - N/A   Mostly Cloudy
12:53 AM 77.0 °F - 72.0 °F 84% 29.93 in 10.0 mi South 13.8 mph - N/A   Mostly Cloudy
1:07 AM 77.0 °F - 72.0 °F 84% 29.91 in 10.0 mi South 10.4 mph - N/A   Mostly Cloudy
1:53 AM 78.1 °F - 72.0 °F 81% 29.93 in 10.0 mi South 10.4 mph - N/A   Overcast
2:29 AM 77.0 °F - 72.0 °F 84% 29.91 in 10.0 mi SSE 8.1 mph - N/A   Scattered Clouds
2:53 AM 75.9 °F - 72.0 °F 87% 29.93 in 10.0 mi SSE 5.8 mph - N/A   Mostly Cloudy
3:42 AM 77.0 °F - 72.0 °F 84% 29.92 in 10.0 mi South 6.9 mph - N/A   Overcast
3:53 AM 77.0 °F - 72.0 °F 84% 29.93 in 10.0 mi SSE 6.9 mph - N/A   Overcast
4:14 AM 77.0 °F - 72.0 °F 84% 29.91 in 10.0 mi SSE 8.1 mph - N/A   Overcast
4:39 AM 77.0 °F - 73.0 °F 88% 29.92 in 10.0 mi SSE 6.9 mph - N/A   Overcast
4:53 AM 77.0 °F - 73.0 °F 88% 29.94 in 10.0 mi South 6.9 mph - N/A   Overcast
5:53 AM 75.9 °F - 72.0 °F 87% 29.95 in 10.0 mi SSE 6.9 mph - N/A   Mostly Cloudy
6:53 AM 77.0 °F - 73.0 °F 88% 29.96 in 10.0 mi SSE 5.8 mph - N/A   Overcast
7:26 AM 77.0 °F - 73.0 °F 88% 29.95 in 10.0 mi South 5.8 mph - N/A   Overcast
7:49 AM 77.0 °F - 73.4 °F 89% 29.95 in 10.0 mi SSE 9.2 mph - N/A   Overcast
7:53 AM 77.0 °F - 73.0 °F 88% 29.97 in 10.0 mi SSE 9.2 mph - N/A   Overcast
8:00 AM 78.1 °F - 73.9 °F 87% 29.96 in 10.0 mi South 8.1 mph - N/A   Overcast
8:34 AM 78.1 °F - 73.9 °F 87% 29.96 in 10.0 mi South 8.1 mph - N/A   Mostly Cloudy
8:53 AM 79.0 °F - 73.9 °F 84% 29.98 in 10.0 mi South 9.2 mph - N/A   Overcast
9:17 AM 80.1 °F 84.5 °F 73.9 °F 81% 29.96 in 10.0 mi South 10.4 mph - N/A   Overcast
9:28 AM 80.1 °F 84.5 °F 73.9 °F 81% 29.97 in 10.0 mi South 9.2 mph - N/A   Overcast
9:53 AM 81.0 °F 86.2 °F 73.9 °F 79% 29.99 in 10.0 mi South 12.7 mph - N/A   Overcast
10:01 AM 81.0 °F 86.2 °F 73.9 °F 79% 29.97 in 10.0 mi South 9.2 mph - N/A   Overcast
10:53 AM 86.0 °F 93.8 °F 73.9 °F 67% 29.99 in 10.0 mi South 13.8 mph - N/A   Mostly Cloudy
11:53 AM 87.1 °F 94.5 °F 73.0 °F 63% 29.96 in 10.0 mi South 12.7 mph 20.7 mph N/A   Mostly Cloudy
12:53 PM 90.0 °F 96.9 °F 72.0 °F 55% 29.93 in 10.0 mi South 9.2 mph 23.0 mph N/A   Scattered Clouds
1:53 PM 88.0 °F 93.8 °F 71.1 °F 57% 29.91 in 10.0 mi SW 9.2 mph 20.7 mph N/A   Mostly Cloudy
2:53 PM 88.0 °F 95.6 °F 73.0 °F 61% 29.88 in 10.0 mi SSW 8.1 mph - N/A   Partly Cloudy
3:53 PM 86.0 °F 92.2 °F 72.0 °F 63% 29.86 in 10.0 mi South 5.8 mph - N/A   Scattered Clouds
4:53 PM 86.0 °F 96.0 °F 75.9 °F 72% 29.85 in 10.0 mi Variable 4.6 mph - 0.00 in   Partly Cloudy
5:53 PM 87.1 °F 92.8 °F 71.1 °F 59% 29.82 in 10.0 mi South 10.4 mph - N/A   Clear
6:53 PM 86.0 °F 91.5 °F 71.1 °F 61% 29.83 in 10.0 mi South 12.7 mph - N/A   Clear
7:53 PM 84.0 °F 89.6 °F 72.0 °F 67% 29.86 in 10.0 mi South 10.4 mph - N/A   Clear
8:53 PM 82.0 °F 87.4 °F 73.0 °F 74% 29.86 in 10.0 mi SSE 11.5 mph - N/A   Clear
9:53 PM 79.0 °F - 73.0 °F 82% 29.89 in 10.0 mi SSE 5.8 mph - N/A   Clear
10:53 PM 81.0 °F 85.8 °F 73.0 °F 77% 29.90 in 10.0 mi South 6.9 mph - N/A   Clear
11:53 PM 80.1 °F 84.2 °F 73.0 °F 79% 29.91 in 10.0 mi SSW 5.8 mph - N/A   Scattered Clouds